Time,TemperatureF,DewpointF,PressureIn,WindDirection,WindDirectionDegrees,WindSpeedMPH,WindSpeedGustMPH,Humidity,HourlyPrecipIn,Conditions,Clouds,dailyrainin,SoftwareType,DateUTC
2013-09-30 00:01:00,60.6,59.5,30.00,North,0,0.0,0.0,96,0.00,CLR,CLR,0.00,WeatherDisplay:10.37,2013-09-30 04:01:00,
2013-09-30 00:02:00,60.4,59.0,30.00,North,0,0.0,0.0,95,0.00,CLR,CLR,0.00,WeatherDisplay:10.37,2013-09-30 04:02:00,
2013-09-30 00:07:00,60.1,58.6,30.00,North,0,0.0,0.0,95,0.00,CLR,CLR,0.00,WeatherDisplay:10.37,2013-09-30 04:07:00,
2013-09-30 00:12:00,59.9,58.2,29.97,North,0,0.0,0.0,94,0.00,CLR,CLR,0.00,WeatherDisplay:10.37,2013-09-30 04:12:00,
2013-09-30 00:17:00,59.7,58.0,29.97,North,0,0.0,0.0,94,0.00,CLR,CLR,0.00,WeatherDisplay:10.37,2013-09-30 04:17:00,
2013-09-30 00:22:00,59.7,58.0,29.97,North,0,0.0,0.0,94,0.00,CLR,CLR,0.00,WeatherDisplay:10.37,2013-09-30 04:22:00,
2013-09-30 00:27:00,59.5,57.8,29.97,North,0,0.0,0.0,94,0.00,CLR,CLR,0.00,WeatherDisplay:10.37,2013-09-30 04:27:00,
2013-09-30 00:32:00,59.4,57.6,29.97,North,0,0.0,0.0,94,0.00,CLR,CLR,0.00,WeatherDisplay:10.37,2013-09-30 04:32:00,
2013-09-30 00:37:00,58.8,57.1,29.97,North,0,0.0,0.0,94,0.00,CLR,CLR,0.00,WeatherDisplay:10.37,2013-09-30 04:37:00,
2013-09-30 00:42:00,58.5,56.7,29.97,North,0,0.0,0.0,94,0.00,CLR,CLR,0.00,WeatherDisplay:10.37,2013-09-30 04:42:00,
2013-09-30 00:47:00,58.3,56.6,29.97,North,0,0.0,0.0,94,0.00,CLR,CLR,0.00,WeatherDisplay:10.37,2013-09-30 04:47:00,
2013-09-30 00:52:00,58.3,57.1,29.97,North,0,0.0,0.0,96,0.00,CLR,CLR,0.00,WeatherDisplay:10.37,2013-09-30 04:52:00,
2013-09-30 00:57:00,58.3,57.7,29.97,North,0,0.0,0.0,98,0.00,CLR,CLR,0.00,WeatherDisplay:10.37,2013-09-30 04:57:00,
2013-09-30 01:02:00,58.1,57.5,29.97,North,0,0.0,0.0,98,0.00,CLR,CLR,0.00,WeatherDisplay:10.37,2013-09-30 05:02:00,
2013-09-30 01:07:00,58.1,57.3,29.97,North,0,0.0,0.0,97,0.00,CLR,CLR,0.00,WeatherDisplay:10.37,2013-09-30 05:07:00,
2013-09-30 01:12:00,58.5,57.9,29.97,North,0,0.0,0.0,98,0.00,CLR,CLR,0.00,WeatherDisplay:10.37,2013-09-30 05:12:00,
2013-09-30 01:17:00,58.6,58.1,29.97,North,0,0.0,0.0,98,0.00,CLR,CLR,0.00,WeatherDisplay:10.37,2013-09-30 05:17:00,
2013-09-30 01:22:00,58.3,57.7,29.97,North,0,0.0,0.0,98,0.00,CLR,CLR,0.00,WeatherDisplay:10.37,2013-09-30 05:22:00,
2013-09-30 01:27:00,57.9,57.4,29.97,North,0,0.0,0.0,98,0.00,CLR,CLR,0.00,WeatherDisplay:10.37,2013-09-30 05:27:00,
2013-09-30 01:32:00,57.6,57.0,29.97,North,0,0.0,0.0,98,0.00,CLR,CLR,0.00,WeatherDisplay:10.37,2013-09-30 05:32:00,
2013-09-30 01:37:00,57.6,57.0,29.97,North,0,0.0,0.0,98,0.00,CLR,CLR,0.00,WeatherDisplay:10.37,2013-09-30 05:37:00,
2013-09-30 01:42:00,57.0,56.5,29.97,North,0,0.0,0.0,98,0.00,CLR,CLR,0.00,WeatherDisplay:10.37,2013-09-30 05:42:00,
2013-09-30 01:47:00,57.4,56.8,29.97,North,0,0.0,0.0,98,0.00,CLR,CLR,0.00,WeatherDisplay:10.37,2013-09-30 05:47:00,
2013-09-30 01:52:00,56.7,56.1,29.97,North,0,0.0,0.0,98,0.00,CLR,CLR,0.00,WeatherDisplay:10.37,2013-09-30 05:52:00,
2013-09-30 01:57:00,56.8,56.3,29.97,North,0,0.0,0.0,98,0.00,CLR,CLR,0.00,WeatherDisplay:10.37,2013-09-30 05:57:00,
2013-09-30 02:03:00,57.9,57.4,29.97,North,0,0.0,0.0,98,0.00,CLR,CLR,0.00,WeatherDisplay:10.37,2013-09-30 06:03:00,
2013-09-30 02:08:00,58.1,57.5,29.97,North,0,0.0,0.0,98,0.00,CLR,CLR,0.00,WeatherDisplay:10.37,2013-09-30 06:08:00,
2013-09-30 02:13:00,58.6,58.1,30.00,North,0,0.0,0.0,98,0.00,CLR,CLR,0.00,WeatherDisplay:10.37,2013-09-30 06:13:00,
2013-09-30 02:18:00,59.0,58.4,30.00,North,0,0.0,0.0,98,0.00,CLR,CLR,0.00,WeatherDisplay:10.37,2013-09-30 06:18:00,
2013-09-30 02:23:00,58.8,58.3,30.00,North,0,0.0,0.0,98,0.00,CLR,CLR,0.00,WeatherDisplay:10.37,2013-09-30 06:23:00,
2013-09-30 02:28:00,58.8,58.3,30.00,North,0,0.0,0.0,98,0.00,CLR,CLR,0.00,WeatherDisplay:10.37,2013-09-30 06:28:00,
2013-09-30 02:33:00,59.0,58.4,30.00,North,0,0.0,0.0,98,0.00,CLR,CLR,0.00,WeatherDisplay:10.37,2013-09-30 06:33:00,
2013-09-30 02:38:00,59.0,58.4,29.97,North,0,0.0,0.0,98,0.00,CLR,CLR,0.00,WeatherDisplay:10.37,2013-09-30 06:38:00,
2013-09-30 02:43:00,58.6,58.1,29.97,North,0,0.0,0.0,98,0.00,CLR,CLR,0.00,WeatherDisplay:10.37,2013-09-30 06:43:00,
2013-09-30 02:48:00,58.8,58.3,29.97,North,0,0.0,0.0,98,0.00,CLR,CLR,0.00,WeatherDisplay:10.37,2013-09-30 06:48:00,
2013-09-30 02:53:00,58.6,58.1,29.97,North,0,0.0,0.0,98,0.00,CLR,CLR,0.00,WeatherDisplay:10.37,2013-09-30 06:53:00,
2013-09-30 02:58:00,58.8,58.3,29.97,North,0,0.0,0.0,98,0.00,CLR,CLR,0.00,WeatherDisplay:10.37,2013-09-30 06:58:00,
2013-09-30 03:03:00,58.8,58.3,29.97,North,0,0.0,0.0,98,0.00,CLR,CLR,0.00,WeatherDisplay:10.37,2013-09-30 07:03:00,
2013-09-30 03:08:00,58.8,58.3,29.97,North,0,0.0,0.0,98,0.00,CLR,CLR,0.00,WeatherDisplay:10.37,2013-09-30 07:08:00,
2013-09-30 03:13:00,58.8,58.3,29.97,North,0,0.0,0.0,98,0.00,CLR,CLR,0.00,WeatherDisplay:10.37,2013-09-30 07:13:00,
2013-09-30 03:18:00,59.0,58.4,29.97,North,0,0.0,0.0,98,0.00,CLR,CLR,0.00,WeatherDisplay:10.37,2013-09-30 07:18:00,
2013-09-30 03:23:00,59.0,58.4,29.97,North,0,0.0,0.0,98,0.00,CLR,CLR,0.00,WeatherDisplay:10.37,2013-09-30 07:23:00,
2013-09-30 03:28:00,58.8,58.3,29.97,North,0,0.0,0.0,98,0.00,CLR,CLR,0.00,WeatherDisplay:10.37,2013-09-30 07:28:00,
2013-09-30 03:33:00,59.0,58.4,29.97,North,0,0.0,0.0,98,0.00,CLR,CLR,0.00,WeatherDisplay:10.37,2013-09-30 07:33:00,
2013-09-30 03:38:00,59.2,58.6,29.97,North,0,0.0,0.0,98,0.00,CLR,CLR,0.00,WeatherDisplay:10.37,2013-09-30 07:38:00,
2013-09-30 03:43:00,59.2,58.6,29.97,North,0,0.0,0.0,98,0.00,CLR,CLR,0.00,WeatherDisplay:10.37,2013-09-30 07:43:00,
2013-09-30 03:48:00,59.2,58.6,29.97,North,0,0.0,0.0,98,0.00,CLR,CLR,0.00,WeatherDisplay:10.37,2013-09-30 07:48:00,
2013-09-30 03:53:00,59.4,58.8,29.97,North,0,0.0,0.0,98,0.00,CLR,CLR,0.00,WeatherDisplay:10.37,2013-09-30 07:53:00,
2013-09-30 03:58:00,59.4,58.8,29.97,North,0,0.0,0.0,98,0.00,CLR,CLR,0.00,WeatherDisplay:10.37,2013-09-30 07:58:00,
2013-09-30 04:03:00,59.4,58.8,29.97,North,0,0.0,0.0,98,0.00,CLR,CLR,0.00,WeatherDisplay:10.37,2013-09-30 08:03:00,
2013-09-30 04:08:00,59.4,58.8,29.97,North,0,0.0,0.0,98,0.00,CLR,CLR,0.00,WeatherDisplay:10.37,2013-09-30 08:08:00,
2013-09-30 04:13:00,59.2,58.6,29.97,North,0,0.0,0.0,98,0.00,CLR,CLR,0.00,WeatherDisplay:10.37,2013-09-30 08:13:00,
2013-09-30 04:18:00,59.2,58.6,29.97,North,0,0.0,0.0,98,0.00,CLR,CLR,0.00,WeatherDisplay:10.37,2013-09-30 08:18:00,
2013-09-30 04:23:00,59.0,58.4,29.97,North,0,0.0,0.0,98,0.00,CLR,CLR,0.00,WeatherDisplay:10.37,2013-09-30 08:23:00,
2013-09-30 04:28:00,59.0,58.4,29.97,North,0,0.0,0.0,98,0.00,CLR,CLR,0.00,WeatherDisplay:10.37,2013-09-30 08:28:00,
2013-09-30 04:33:00,58.8,58.3,29.97,North,0,0.0,0.0,98,0.00,CLR,CLR,0.00,WeatherDisplay:10.37,2013-09-30 08:33:00,
2013-09-30 04:38:00,58.8,58.3,29.97,North,0,0.0,0.0,98,0.00,CLR,CLR,0.00,WeatherDisplay:10.37,2013-09-30 08:38:00,
2013-09-30 04:43:00,58.8,58.3,29.97,North,0,0.0,0.0,98,0.00,CLR,CLR,0.00,WeatherDisplay:10.37,2013-09-30 08:43:00,
2013-09-30 04:48:00,58.8,58.3,29.97,North,0,0.0,0.0,98,0.00,CLR,CLR,0.00,WeatherDisplay:10.37,2013-09-30 08:48:00,
2013-09-30 04:53:00,58.6,58.1,29.97,North,0,0.0,0.0,98,0.00,CLR,CLR,0.00,WeatherDisplay:10.37,2013-09-30 08:53:00,
2013-09-30 04:58:00,58.6,58.1,29.97,North,0,0.0,0.0,98,0.00,CLR,CLR,0.00,WeatherDisplay:10.37,2013-09-30 08:58:00,
2013-09-30 05:03:00,58.6,58.1,29.97,North,0,0.0,0.0,98,0.00,CLR,CLR,0.00,WeatherDisplay:10.37,2013-09-30 09:03:00,
2013-09-30 05:08:00,58.5,57.9,29.97,North,0,0.0,0.0,98,0.00,CLR,CLR,0.00,WeatherDisplay:10.37,2013-09-30 09:08:00,
2013-09-30 05:13:00,58.5,57.9,29.97,North,0,0.0,0.0,98,0.00,CLR,CLR,0.00,WeatherDisplay:10.37,2013-09-30 09:13:00,
2013-09-30 05:18:00,58.5,57.9,29.97,North,0,0.0,0.0,98,0.00,CLR,CLR,0.00,WeatherDisplay:10.37,2013-09-30 09:18:00,
2013-09-30 05:23:00,58.5,57.9,29.97,North,0,0.0,0.0,98,0.00,CLR,CLR,0.00,WeatherDisplay:10.37,2013-09-30 09:23:00,
2013-09-30 05:28:00,58.5,57.9,29.97,North,0,0.0,0.0,98,0.00,CLR,CLR,0.00,WeatherDisplay:10.37,2013-09-30 09:28:00,
2013-09-30 05:33:00,58.5,57.9,29.97,North,0,0.0,0.0,98,0.00,CLR,CLR,0.00,WeatherDisplay:10.37,2013-09-30 09:33:00,
2013-09-30 05:38:00,58.5,57.9,29.97,North,0,0.0,0.0,98,0.00,CLR,CLR,0.00,WeatherDisplay:10.37,2013-09-30 09:38:00,
2013-09-30 05:43:00,58.5,57.9,29.97,North,0,0.0,0.0,98,0.00,CLR,CLR,0.00,WeatherDisplay:10.37,2013-09-30 09:43:00,
2013-09-30 05:48:00,58.5,57.9,29.97,North,0,0.0,0.0,98,0.00,CLR,CLR,0.00,WeatherDisplay:10.37,2013-09-30 09:48:00,
2013-09-30 05:53:00,58.5,57.9,29.97,North,0,0.0,0.0,98,0.00,CLR,CLR,0.00,WeatherDisplay:10.37,2013-09-30 09:53:00,
2013-09-30 05:58:00,58.5,57.9,29.97,North,0,0.0,0.0,98,0.00,CLR,CLR,0.00,WeatherDisplay:10.37,2013-09-30 09:58:00,
2013-09-30 06:03:00,58.5,57.9,29.97,North,0,0.0,0.0,98,0.00,CLR,CLR,0.00,WeatherDisplay:10.37,2013-09-30 10:03:00,
2013-09-30 06:08:00,58.5,57.9,30.00,North,0,0.0,0.0,98,0.00,CLR,CLR,0.00,WeatherDisplay:10.37,2013-09-30 10:08:00,
2013-09-30 06:13:00,58.5,57.9,30.00,North,0,0.0,0.0,98,0.00,CLR,CLR,0.00,WeatherDisplay:10.37,2013-09-30 10:13:00,
2013-09-30 06:18:00,58.3,57.7,30.00,North,0,0.0,0.0,98,0.00,CLR,CLR,0.00,WeatherDisplay:10.37,2013-09-30 10:18:00,
2013-09-30 06:23:00,58.3,57.7,29.97,North,0,0.0,0.0,98,0.00,CLR,CLR,0.00,WeatherDisplay:10.37,2013-09-30 10:23:00,
2013-09-30 06:28:00,58.5,57.9,29.97,North,0,0.0,0.0,98,0.00,CLR,CLR,0.00,WeatherDisplay:10.37,2013-09-30 10:28:00,
2013-09-30 06:33:00,58.3,57.7,29.97,North,0,0.0,0.0,98,0.00,CLR,CLR,0.00,WeatherDisplay:10.37,2013-09-30 10:33:00,
2013-09-30 06:38:00,58.1,57.5,30.00,North,0,0.0,0.0,98,0.00,CLR,CLR,0.00,WeatherDisplay:10.37,2013-09-30 10:38:00,
2013-09-30 06:43:00,58.1,57.5,30.00,North,0,0.0,0.0,98,0.00,CLR,CLR,0.00,WeatherDisplay:10.37,2013-09-30 10:43:00,
2013-09-30 06:48:00,58.1,57.5,30.00,North,0,0.0,0.0,98,0.00,CLR,CLR,0.00,WeatherDisplay:10.37,2013-09-30 10:48:00,
2013-09-30 06:53:00,58.1,57.5,30.00,North,0,0.0,0.0,98,0.00,CLR,CLR,0.00,WeatherDisplay:10.37,2013-09-30 10:53:00,
2013-09-30 06:58:00,57.9,57.4,30.00,North,0,0.0,0.0,98,0.00,CLR,CLR,0.00,WeatherDisplay:10.37,2013-09-30 10:58:00,
2013-09-30 07:03:00,57.9,57.4,30.00,North,0,0.0,0.0,98,0.00,CLR,CLR,0.00,WeatherDisplay:10.37,2013-09-30 11:03:00,
2013-09-30 07:08:00,58.1,57.5,30.00,North,0,0.0,0.0,98,0.00,CLR,CLR,0.00,WeatherDisplay:10.37,2013-09-30 11:08:00,
2013-09-30 07:13:00,58.1,57.5,30.00,North,0,0.0,0.0,98,0.00,CLR,CLR,0.00,WeatherDisplay:10.37,2013-09-30 11:13:00,
2013-09-30 07:18:00,58.1,57.5,30.00,North,0,0.0,0.0,98,0.00,CLR,CLR,0.00,WeatherDisplay:10.37,2013-09-30 11:18:00,
2013-09-30 07:23:00,58.1,57.5,30.00,North,0,0.0,0.0,98,0.00,CLR,CLR,0.00,WeatherDisplay:10.37,2013-09-30 11:23:00,
2013-09-30 07:28:00,58.1,57.5,30.00,North,0,0.0,0.0,98,0.00,CLR,CLR,0.00,WeatherDisplay:10.37,2013-09-30 11:28:00,
2013-09-30 07:33:00,58.3,57.7,30.00,North,0,0.0,0.0,98,0.00,CLR,CLR,0.00,WeatherDisplay:10.37,2013-09-30 11:33:00,
2013-09-30 07:39:00,58.6,58.1,30.00,North,0,0.0,0.0,98,0.00,CLR,CLR,0.00,WeatherDisplay:10.37,2013-09-30 11:39:00,
2013-09-30 07:44:00,58.8,58.3,30.00,North,0,0.0,0.0,98,0.00,CLR,CLR,0.00,WeatherDisplay:10.37,2013-09-30 11:44:00,
2013-09-30 07:49:00,59.2,58.6,30.00,North,0,0.0,0.0,98,0.00,CLR,CLR,0.00,WeatherDisplay:10.37,2013-09-30 11:49:00,
2013-09-30 07:54:00,59.4,58.8,30.00,North,0,0.0,0.0,98,0.00,CLR,CLR,0.00,WeatherDisplay:10.37,2013-09-30 11:54:00,
2013-09-30 07:59:00,59.7,59.2,30.00,North,0,0.0,0.0,98,0.00,CLR,CLR,0.00,WeatherDisplay:10.37,2013-09-30 11:59:00,
2013-09-30 08:04:00,60.1,59.5,30.00,North,0,0.0,0.0,98,0.00,CLR,CLR,0.00,WeatherDisplay:10.37,2013-09-30 12:04:00,
2013-09-30 08:09:00,60.4,59.9,30.00,North,0,0.0,0.0,98,0.00,CLR,CLR,0.00,WeatherDisplay:10.37,2013-09-30 12:09:00,
2013-09-30 08:14:00,61.0,60.4,30.00,North,0,0.0,0.0,98,0.00,CLR,CLR,0.00,WeatherDisplay:10.37,2013-09-30 12:14:00,
2013-09-30 08:19:00,61.5,60.7,30.00,North,0,0.0,0.0,97,0.00,CLR,CLR,0.00,WeatherDisplay:10.37,2013-09-30 12:19:00,
2013-09-30 08:24:00,61.9,61.0,30.00,North,0,0.0,0.0,97,0.00,CLR,CLR,0.00,WeatherDisplay:10.37,2013-09-30 12:24:00,
2013-09-30 08:29:00,62.2,60.8,30.00,North,0,0.0,0.0,95,0.00,CLR,CLR,0.00,WeatherDisplay:10.37,2013-09-30 12:29:00,
2013-09-30 08:34:00,62.6,61.1,30.00,North,0,0.0,0.0,95,0.00,CLR,CLR,0.00,WeatherDisplay:10.37,2013-09-30 12:34:00,
2013-09-30 08:39:00,63.0,60.9,30.00,North,0,0.0,0.0,93,0.00,CLR,CLR,0.00,WeatherDisplay:10.37,2013-09-30 12:39:00,
2013-09-30 08:44:00,63.5,61.4,30.00,North,0,0.0,0.0,93,0.00,CLR,CLR,0.00,WeatherDisplay:10.37,2013-09-30 12:44:00,
2013-09-30 08:49:00,64.0,62.0,30.00,North,0,0.0,0.0,93,0.00,CLR,CLR,0.00,WeatherDisplay:10.37,2013-09-30 12:49:00,
2013-09-30 08:54:00,64.0,62.0,30.00,North,0,0.0,0.0,93,0.00,CLR,CLR,0.00,WeatherDisplay:10.37,2013-09-30 12:54:00,
2013-09-30 08:59:00,64.6,61.6,30.00,North,0,0.0,0.0,90,0.00,CLR,CLR,0.00,WeatherDisplay:10.37,2013-09-30 12:59:00,
2013-09-30 09:04:00,64.8,62.1,30.00,North,0,0.0,0.0,91,0.00,CLR,CLR,0.00,WeatherDisplay:10.37,2013-09-30 13:04:00,
2013-09-30 09:09:00,65.1,61.2,30.00,North,0,0.0,0.0,87,0.00,CLR,CLR,0.00,WeatherDisplay:10.37,2013-09-30 13:09:00,
2013-09-30 09:14:00,65.5,61.2,30.00,North,0,0.0,0.0,86,0.00,CLR,CLR,0.00,WeatherDisplay:10.37,2013-09-30 13:14:00,
2013-09-30 09:19:00,66.6,63.2,30.00,North,0,0.0,0.0,89,0.00,CLR,CLR,0.00,WeatherDisplay:10.37,2013-09-30 13:19:00,
2013-09-30 09:24:00,66.4,62.1,30.00,North,0,0.0,0.0,86,0.00,CLR,CLR,0.00,WeatherDisplay:10.37,2013-09-30 13:24:00,
2013-09-30 09:29:00,66.7,62.1,30.00,North,0,0.0,0.0,85,0.00,CLR,CLR,0.00,WeatherDisplay:10.37,2013-09-30 13:29:00,
2013-09-30 09:34:00,67.1,61.4,30.00,North,0,0.0,0.0,82,0.00,CLR,CLR,0.00,WeatherDisplay:10.37,2013-09-30 13:34:00,
2013-09-30 09:39:00,67.8,62.5,30.03,North,0,0.0,0.0,83,0.00,CLR,CLR,0.00,WeatherDisplay:10.37,2013-09-30 13:39:00,
2013-09-30 09:44:00,67.3,61.2,30.03,North,0,0.0,0.0,81,0.00,CLR,CLR,0.00,WeatherDisplay:10.37,2013-09-30 13:44:00,
2013-09-30 09:49:00,67.8,62.1,30.03,North,0,0.0,0.0,82,0.00,CLR,CLR,0.00,WeatherDisplay:10.37,2013-09-30 13:49:00,
2013-09-30 09:54:00,68.2,61.8,30.00,North,0,0.0,0.0,80,0.00,CLR,CLR,0.00,WeatherDisplay:10.37,2013-09-30 13:54:00,
2013-09-30 09:59:00,68.4,61.9,30.00,North,0,0.0,0.0,80,0.00,CLR,CLR,0.00,WeatherDisplay:10.37,2013-09-30 13:59:00,
2013-09-30 10:04:00,68.4,61.2,30.00,North,0,0.0,0.0,78,0.00,CLR,CLR,0.00,WeatherDisplay:10.37,2013-09-30 14:04:00,
2013-09-30 10:09:00,68.2,61.1,30.03,North,0,0.0,0.0,78,0.00,CLR,CLR,0.00,WeatherDisplay:10.37,2013-09-30 14:09:00,
2013-09-30 10:14:00,68.7,61.6,30.03,North,0,0.0,0.0,78,0.00,CLR,CLR,0.00,WeatherDisplay:10.37,2013-09-30 14:14:00,
2013-09-30 10:19:00,69.1,61.6,30.03,North,0,0.0,0.0,77,0.00,CLR,CLR,0.00,WeatherDisplay:10.37,2013-09-30 14:19:00,
2013-09-30 10:24:00,69.3,61.7,30.03,North,0,0.0,0.0,77,0.00,CLR,CLR,0.00,WeatherDisplay:10.37,2013-09-30 14:24:00,
2013-09-30 10:29:00,69.4,62.3,30.03,North,0,0.0,0.0,78,0.00,CLR,CLR,0.00,WeatherDisplay:10.37,2013-09-30 14:29:00,
2013-09-30 10:34:00,69.6,61.7,30.03,North,0,0.0,0.0,76,0.00,CLR,CLR,0.00,WeatherDisplay:10.37,2013-09-30 14:34:00,
2013-09-30 10:39:00,69.6,62.5,30.00,North,0,0.0,0.0,78,0.00,CLR,CLR,0.00,WeatherDisplay:10.37,2013-09-30 14:39:00,
2013-09-30 10:44:00,69.8,61.5,30.00,North,0,0.0,0.0,75,0.00,CLR,CLR,0.00,WeatherDisplay:10.37,2013-09-30 14:44:00,
2013-09-30 10:49:00,69.8,61.9,30.00,North,0,0.0,0.0,76,0.00,CLR,CLR,0.00,WeatherDisplay:10.37,2013-09-30 14:49:00,
2013-09-30 10:54:00,70.0,61.7,30.00,North,0,0.0,0.0,75,0.00,CLR,CLR,0.00,WeatherDisplay:10.37,2013-09-30 14:54:00,
2013-09-30 10:59:00,70.0,61.7,30.00,North,0,0.0,0.0,75,0.00,CLR,CLR,0.00,WeatherDisplay:10.37,2013-09-30 14:59:00,
2013-09-30 11:04:00,69.3,61.0,30.00,North,0,0.0,0.0,75,0.00,CLR,CLR,0.00,WeatherDisplay:10.37,2013-09-30 15:04:00,
2013-09-30 11:09:00,70.7,62.0,30.00,North,0,0.0,0.0,74,0.00,CLR,CLR,0.00,WeatherDisplay:10.37,2013-09-30 15:09:00,
2013-09-30 11:14:00,71.4,61.5,30.00,North,0,0.0,0.0,71,0.00,CLR,CLR,0.00,WeatherDisplay:10.37,2013-09-30 15:14:00,
2013-09-30 11:19:00,71.4,63.1,30.00,North,0,0.0,0.0,75,0.00,CLR,CLR,0.00,WeatherDisplay:10.37,2013-09-30 15:19:00,
2013-09-30 11:24:00,70.7,61.2,30.00,North,0,0.0,0.0,72,0.00,CLR,CLR,0.00,WeatherDisplay:10.37,2013-09-30 15:24:00,
2013-09-30 11:29:00,71.4,62.3,30.00,North,0,0.0,0.0,73,0.00,CLR,CLR,0.00,WeatherDisplay:10.37,2013-09-30 15:29:00,
2013-09-30 11:34:00,71.2,62.5,30.00,North,0,0.0,0.0,74,0.00,CLR,CLR,0.00,WeatherDisplay:10.37,2013-09-30 15:34:00,
2013-09-30 11:39:00,71.2,62.1,30.00,North,0,0.0,0.0,73,0.00,CLR,CLR,0.00,WeatherDisplay:10.37,2013-09-30 15:39:00,
2013-09-30 11:44:00,71.4,62.3,30.00,North,0,0.0,0.0,73,0.00,CLR,CLR,0.00,WeatherDisplay:10.37,2013-09-30 15:44:00,
2013-09-30 11:49:00,71.2,61.4,30.00,North,0,0.0,0.0,71,0.00,CLR,CLR,0.00,WeatherDisplay:10.37,2013-09-30 15:49:00,
2013-09-30 11:54:00,70.9,61.4,30.00,North,0,0.0,0.0,72,0.00,CLR,CLR,0.00,WeatherDisplay:10.37,2013-09-30 15:54:00,
2013-09-30 11:59:00,70.7,61.6,30.00,North,0,0.0,0.0,73,0.00,CLR,CLR,0.00,WeatherDisplay:10.37,2013-09-30 15:59:00,
2013-09-30 12:04:00,70.9,60.6,30.00,North,0,0.0,0.0,70,0.00,CLR,CLR,0.00,WeatherDisplay:10.37,2013-09-30 16:04:00,
2013-09-30 12:09:00,71.1,60.8,30.00,North,0,0.0,0.0,70,0.00,CLR,CLR,0.00,WeatherDisplay:10.37,2013-09-30 16:09:00,
2013-09-30 12:15:00,71.8,60.6,30.00,North,0,0.0,0.0,68,0.00,CLR,CLR,0.00,WeatherDisplay:10.37,2013-09-30 16:15:00,
2013-09-30 12:20:00,72.1,61.4,30.00,North,0,0.0,0.0,69,0.00,CLR,CLR,0.00,WeatherDisplay:10.37,2013-09-30 16:20:00,
2013-09-30 12:25:00,73.2,62.4,30.00,North,0,0.0,0.0,69,0.00,CLR,CLR,0.00,WeatherDisplay:10.37,2013-09-30 16:25:00,
2013-09-30 12:30:00,73.2,61.6,30.00,North,0,0.0,0.0,67,0.00,CLR,CLR,0.00,WeatherDisplay:10.37,2013-09-30 16:30:00,
2013-09-30 12:35:00,72.9,60.4,30.00,North,0,0.0,0.0,65,0.00,CLR,CLR,0.00,WeatherDisplay:10.37,2013-09-30 16:35:00,
2013-09-30 12:40:00,73.2,61.6,30.00,North,0,0.0,0.0,67,0.00,CLR,CLR,0.00,WeatherDisplay:10.37,2013-09-30 16:40:00,
2013-09-30 12:45:00,72.9,60.4,30.00,North,0,0.0,0.0,65,0.00,CLR,CLR,0.00,WeatherDisplay:10.37,2013-09-30 16:45:00,
2013-09-30 12:50:00,73.4,60.0,30.00,North,0,0.0,0.0,63,0.00,CLR,CLR,0.00,WeatherDisplay:10.37,2013-09-30 16:50:00,
2013-09-30 12:55:00,73.9,61.4,30.00,North,0,0.0,0.0,65,0.00,CLR,CLR,0.00,WeatherDisplay:10.37,2013-09-30 16:55:00,
2013-09-30 13:00:00,72.3,59.9,30.00,North,0,0.0,0.0,65,0.00,CLR,CLR,0.00,WeatherDisplay:10.37,2013-09-30 17:00:00,
2013-09-30 13:05:00,72.1,59.7,30.00,North,0,0.0,0.0,65,0.00,CLR,CLR,0.00,WeatherDisplay:10.37,2013-09-30 17:05:00,
2013-09-30 13:10:00,72.9,60.4,30.00,North,0,0.0,0.0,65,0.00,CLR,CLR,0.00,WeatherDisplay:10.37,2013-09-30 17:10:00,
2013-09-30 13:15:00,73.6,61.1,30.00,North,0,0.0,0.0,65,0.00,CLR,CLR,0.00,WeatherDisplay:10.37,2013-09-30 17:15:00,
2013-09-30 13:20:00,73.0,61.4,30.00,North,0,0.0,0.0,67,0.00,CLR,CLR,0.00,WeatherDisplay:10.37,2013-09-30 17:20:00,
2013-09-30 13:25:00,73.8,62.5,30.00,North,0,0.0,0.0,68,0.00,CLR,CLR,0.00,WeatherDisplay:10.37,2013-09-30 17:25:00,
2013-09-30 13:30:00,73.8,62.1,30.00,North,0,0.0,0.0,67,0.00,CLR,CLR,0.00,WeatherDisplay:10.37,2013-09-30 17:30:00,
2013-09-30 13:35:00,73.2,62.0,30.00,North,0,0.0,0.0,68,0.00,CLR,CLR,0.00,WeatherDisplay:10.37,2013-09-30 17:35:00,
2013-09-30 13:40:00,73.2,60.7,29.97,North,0,0.0,0.0,65,0.00,CLR,CLR,0.00,WeatherDisplay:10.37,2013-09-30 17:40:00,
2013-09-30 13:45:00,75.9,63.3,29.97,North,0,0.0,0.0,65,0.00,CLR,CLR,0.00,WeatherDisplay:10.37,2013-09-30 17:45:00,
2013-09-30 13:50:00,74.1,61.2,29.97,North,0,0.0,0.0,64,0.00,CLR,CLR,0.00,WeatherDisplay:10.37,2013-09-30 17:50:00,
2013-09-30 13:55:00,73.6,60.6,29.97,North,0,0.0,0.0,64,0.00,CLR,CLR,0.00,WeatherDisplay:10.37,2013-09-30 17:55:00,
2013-09-30 14:00:00,75.0,62.0,29.97,North,0,0.0,0.0,64,0.00,CLR,CLR,0.00,WeatherDisplay:10.37,2013-09-30 18:00:00,
2013-09-30 14:05:00,74.8,62.7,29.97,North,0,0.0,0.0,66,0.00,CLR,CLR,0.00,WeatherDisplay:10.37,2013-09-30 18:05:00,
2013-09-30 14:10:00,75.4,62.4,29.97,North,0,0.0,0.0,64,0.00,CLR,CLR,0.00,WeatherDisplay:10.37,2013-09-30 18:10:00,
2013-09-30 14:15:00,76.5,63.8,29.97,North,0,0.0,0.0,65,0.00,CLR,CLR,0.00,WeatherDisplay:10.37,2013-09-30 18:15:00,
2013-09-30 14:20:00,73.8,60.8,29.97,North,0,0.0,0.0,64,0.00,CLR,CLR,0.00,WeatherDisplay:10.37,2013-09-30 18:20:00,
2013-09-30 14:25:00,73.0,60.6,29.97,North,0,0.0,0.0,65,0.00,CLR,CLR,0.00,WeatherDisplay:10.37,2013-09-30 18:25:00,
2013-09-30 14:30:00,73.0,61.0,29.97,North,0,0.0,0.0,66,0.00,CLR,CLR,0.00,WeatherDisplay:10.37,2013-09-30 18:30:00,
2013-09-30 14:35:00,72.7,61.5,29.97,North,0,0.0,0.0,68,0.00,CLR,CLR,0.00,WeatherDisplay:10.37,2013-09-30 18:35:00,
2013-09-30 14:40:00,72.5,61.3,29.97,North,0,0.0,0.0,68,0.00,CLR,CLR,0.00,WeatherDisplay:10.37,2013-09-30 18:40:00,
2013-09-30 14:45:00,72.5,61.3,29.97,North,0,0.0,0.0,68,0.00,CLR,CLR,0.00,WeatherDisplay:10.37,2013-09-30 18:45:00,
2013-09-30 14:50:00,73.2,61.6,29.97,North,0,0.0,0.0,67,0.00,CLR,CLR,0.00,WeatherDisplay:10.37,2013-09-30 18:50:00,
2013-09-30 14:55:00,73.9,61.4,29.97,North,0,0.0,0.0,65,0.00,CLR,CLR,0.00,WeatherDisplay:10.37,2013-09-30 18:55:00,
2013-09-30 15:00:00,73.4,60.9,29.97,North,0,0.0,0.0,65,0.00,CLR,CLR,0.00,WeatherDisplay:10.37,2013-09-30 19:00:00,
2013-09-30 15:05:00,74.7,62.1,29.97,North,0,0.0,0.0,65,0.00,CLR,CLR,0.00,WeatherDisplay:10.37,2013-09-30 19:05:00,
2013-09-30 15:10:00,75.2,61.3,29.97,North,0,0.0,0.0,62,0.00,CLR,CLR,0.00,WeatherDisplay:10.37,2013-09-30 19:10:00,
2013-09-30 15:15:00,75.4,61.5,29.97,North,0,0.0,0.0,62,0.00,CLR,CLR,0.00,WeatherDisplay:10.37,2013-09-30 19:15:00,
2013-09-30 15:20:00,76.1,60.7,29.97,North,0,0.0,0.0,59,0.00,CLR,CLR,0.00,WeatherDisplay:10.37,2013-09-30 19:20:00,
2013-09-30 15:25:00,75.7,60.9,29.94,North,0,0.0,0.0,60,0.00,CLR,CLR,0.00,WeatherDisplay:10.37,2013-09-30 19:25:00,
2013-09-30 15:30:00,74.5,60.6,29.94,North,0,0.0,0.0,62,0.00,CLR,CLR,0.00,WeatherDisplay:10.37,2013-09-30 19:30:00,
2013-09-30 15:35:00,74.3,60.4,29.94,North,0,0.0,0.0,62,0.00,CLR,CLR,0.00,WeatherDisplay:10.37,2013-09-30 19:35:00,
2013-09-30 15:40:00,74.8,61.4,29.94,North,0,0.0,0.0,63,0.00,CLR,CLR,0.00,WeatherDisplay:10.37,2013-09-30 19:40:00,
2013-09-30 15:45:00,74.3,60.0,29.94,North,0,0.0,0.0,61,0.00,CLR,CLR,0.00,WeatherDisplay:10.37,2013-09-30 19:45:00,
2013-09-30 15:50:00,73.6,60.2,29.94,North,0,0.0,0.0,63,0.00,CLR,CLR,0.00,WeatherDisplay:10.37,2013-09-30 19:50:00,
2013-09-30 15:55:00,73.2,60.3,29.97,North,0,0.0,0.0,64,0.00,CLR,CLR,0.00,WeatherDisplay:10.37,2013-09-30 19:55:00,
2013-09-30 16:00:00,75.0,61.6,29.97,North,0,0.0,0.0,63,0.00,CLR,CLR,0.00,WeatherDisplay:10.37,2013-09-30 20:00:00,
2013-09-30 16:05:00,76.5,62.5,29.97,North,0,0.0,0.0,62,0.00,CLR,CLR,0.00,WeatherDisplay:10.37,2013-09-30 20:05:00,
2013-09-30 16:10:00,75.6,59.7,29.97,North,0,0.0,0.0,58,0.00,CLR,CLR,0.00,WeatherDisplay:10.37,2013-09-30 20:10:00,
2013-09-30 16:15:00,75.7,61.8,29.97,North,0,0.0,0.0,62,0.00,CLR,CLR,0.00,WeatherDisplay:10.37,2013-09-30 20:15:00,
2013-09-30 16:20:00,75.7,60.4,29.97,North,0,0.0,0.0,59,0.00,CLR,CLR,0.00,WeatherDisplay:10.37,2013-09-30 20:20:00,
2013-09-30 16:25:00,76.8,61.9,29.94,North,0,0.0,0.0,60,0.00,CLR,CLR,0.00,WeatherDisplay:10.37,2013-09-30 20:25:00,
2013-09-30 16:30:00,75.4,60.5,29.94,North,0,0.0,0.0,60,0.00,CLR,CLR,0.00,WeatherDisplay:10.37,2013-09-30 20:30:00,
2013-09-30 16:35:00,76.3,59.9,29.94,North,0,0.0,0.0,57,0.00,CLR,CLR,0.00,WeatherDisplay:10.37,2013-09-30 20:35:00,
2013-09-30 16:40:00,75.2,57.9,29.97,North,0,0.0,0.0,55,0.00,CLR,CLR,0.00,WeatherDisplay:10.37,2013-09-30 20:40:00,
2013-09-30 16:45:00,75.9,59.6,29.97,North,0,0.0,0.0,57,0.00,CLR,CLR,0.00,WeatherDisplay:10.37,2013-09-30 20:45:00,
2013-09-30 16:50:00,76.1,59.8,29.97,North,0,0.0,0.0,57,0.00,CLR,CLR,0.00,WeatherDisplay:10.37,2013-09-30 20:50:00,
2013-09-30 16:55:00,75.7,58.4,29.97,North,0,0.0,0.0,55,0.00,CLR,CLR,0.00,WeatherDisplay:10.37,2013-09-30 20:55:00,
2013-09-30 17:01:00,75.2,56.9,29.97,North,0,0.0,0.0,53,0.00,CLR,CLR,0.00,WeatherDisplay:10.37,2013-09-30 21:01:00,
2013-09-30 17:06:00,74.5,56.2,29.97,North,0,0.0,0.0,53,0.00,CLR,CLR,0.00,WeatherDisplay:10.37,2013-09-30 21:06:00,
2013-09-30 17:11:00,74.7,56.9,29.97,North,0,0.0,0.0,54,0.00,CLR,CLR,0.00,WeatherDisplay:10.37,2013-09-30 21:11:00,
2013-09-30 17:16:00,74.7,56.4,29.97,North,0,0.0,0.0,53,0.00,CLR,CLR,0.00,WeatherDisplay:10.37,2013-09-30 21:16:00,
2013-09-30 17:21:00,75.0,56.2,29.97,North,0,0.0,0.0,52,0.00,CLR,CLR,0.00,WeatherDisplay:10.37,2013-09-30 21:21:00,
2013-09-30 17:26:00,74.7,55.3,29.97,North,0,0.0,0.0,51,0.00,CLR,CLR,0.00,WeatherDisplay:10.37,2013-09-30 21:26:00,
2013-09-30 17:31:00,74.3,55.0,29.97,North,0,0.0,0.0,51,0.00,CLR,CLR,0.00,WeatherDisplay:10.37,2013-09-30 21:31:00,
2013-09-30 17:36:00,73.8,55.0,29.97,North,0,0.0,0.0,52,0.00,CLR,CLR,0.00,WeatherDisplay:10.37,2013-09-30 21:36:00,
2013-09-30 17:41:00,73.9,55.2,29.97,North,0,0.0,0.0,52,0.00,CLR,CLR,0.00,WeatherDisplay:10.37,2013-09-30 21:41:00,
2013-09-30 17:46:00,73.6,54.3,29.97,North,0,0.0,0.0,51,0.00,CLR,CLR,0.00,WeatherDisplay:10.37,2013-09-30 21:46:00,
2013-09-30 17:51:00,73.6,55.4,29.97,North,0,0.0,0.0,53,0.00,CLR,CLR,0.00,WeatherDisplay:10.37,2013-09-30 21:51:00,
2013-09-30 17:56:00,73.2,55.6,29.97,North,0,0.0,0.0,54,0.00,CLR,CLR,0.00,WeatherDisplay:10.37,2013-09-30 21:56:00,
2013-09-30 18:01:00,73.0,55.9,29.97,North,0,0.0,0.0,55,0.00,CLR,CLR,0.00,WeatherDisplay:10.37,2013-09-30 22:01:00,
2013-09-30 18:06:00,72.7,56.1,29.97,North,0,0.0,0.0,56,0.00,CLR,CLR,0.00,WeatherDisplay:10.37,2013-09-30 22:06:00,
2013-09-30 18:11:00,72.0,55.4,29.97,North,0,0.0,0.0,56,0.00,CLR,CLR,0.00,WeatherDisplay:10.37,2013-09-30 22:11:00,
2013-09-30 18:16:00,71.6,55.1,29.97,North,0,0.0,0.0,56,0.00,CLR,CLR,0.00,WeatherDisplay:10.37,2013-09-30 22:16:00,
2013-09-30 18:21:00,71.1,55.5,29.97,North,0,0.0,0.0,58,0.00,CLR,CLR,0.00,WeatherDisplay:10.37,2013-09-30 22:21:00,
2013-09-30 18:26:00,70.3,56.7,29.97,North,0,0.0,0.0,62,0.00,CLR,CLR,0.00,WeatherDisplay:10.37,2013-09-30 22:26:00,
2013-09-30 18:31:00,69.8,57.1,29.97,North,0,0.0,0.0,64,0.00,CLR,CLR,0.00,WeatherDisplay:10.37,2013-09-30 22:31:00,
2013-09-30 18:36:00,69.3,57.0,29.97,North,0,0.0,0.0,65,0.00,CLR,CLR,0.00,WeatherDisplay:10.37,2013-09-30 22:36:00,
2013-09-30 18:41:00,68.7,56.9,30.00,North,0,0.0,0.0,66,0.00,CLR,CLR,0.00,WeatherDisplay:10.37,2013-09-30 22:41:00,
2013-09-30 18:46:00,68.5,56.7,30.00,North,0,0.0,0.0,66,0.00,CLR,CLR,0.00,WeatherDisplay:10.37,2013-09-30 22:46:00,
2013-09-30 18:51:00,68.2,56.8,30.00,North,0,0.0,0.0,67,0.00,CLR,CLR,0.00,WeatherDisplay:10.37,2013-09-30 22:51:00,
2013-09-30 18:56:00,67.8,56.9,30.00,North,0,0.0,0.0,68,0.00,CLR,CLR,0.00,WeatherDisplay:10.37,2013-09-30 22:56:00,
2013-09-30 19:01:00,67.3,56.8,30.00,North,0,0.0,0.0,69,0.00,CLR,CLR,0.00,WeatherDisplay:10.37,2013-09-30 23:01:00,
2013-09-30 19:06:00,67.1,56.6,30.00,North,0,0.0,0.0,69,0.00,CLR,CLR,0.00,WeatherDisplay:10.37,2013-09-30 23:06:00,
2013-09-30 19:11:00,66.2,56.5,30.00,North,0,0.0,0.0,71,0.00,CLR,CLR,0.00,WeatherDisplay:10.37,2013-09-30 23:11:00,
2013-09-30 19:16:00,65.8,56.6,30.00,North,0,0.0,0.0,72,0.00,CLR,CLR,0.00,WeatherDisplay:10.37,2013-09-30 23:16:00,
2013-09-30 19:21:00,65.7,56.4,30.00,North,0,0.0,0.0,72,0.00,CLR,CLR,0.00,WeatherDisplay:10.37,2013-09-30 23:21:00,
2013-09-30 19:26:00,65.5,56.2,30.00,North,0,0.0,0.0,72,0.00,CLR,CLR,0.00,WeatherDisplay:10.37,2013-09-30 23:26:00,
2013-09-30 19:31:00,65.1,56.2,30.00,North,0,0.0,0.0,73,0.00,CLR,CLR,0.00,WeatherDisplay:10.37,2013-09-30 23:31:00,
2013-09-30 19:36:00,64.2,56.9,30.00,North,0,0.0,0.0,77,0.00,CLR,CLR,0.00,WeatherDisplay:10.37,2013-09-30 23:36:00,
2013-09-30 19:41:00,63.5,55.8,30.00,North,0,0.0,0.0,76,0.00,CLR,CLR,0.00,WeatherDisplay:10.37,2013-09-30 23:41:00,
2013-09-30 19:46:00,63.5,56.2,30.00,North,0,0.0,0.0,77,0.00,CLR,CLR,0.00,WeatherDisplay:10.37,2013-09-30 23:46:00,
2013-09-30 19:51:00,63.9,56.5,30.00,North,0,0.0,0.0,77,0.00,CLR,CLR,0.00,WeatherDisplay:10.37,2013-09-30 23:51:00,
2013-09-30 19:56:00,63.7,56.7,30.00,North,0,0.0,0.0,78,0.00,CLR,CLR,0.00,WeatherDisplay:10.37,2013-09-30 23:56:00,
2013-09-30 20:01:00,62.8,56.5,30.00,North,0,0.0,0.0,80,0.00,CLR,CLR,0.00,WeatherDisplay:10.37,2013-10-01 00:01:00,
2013-09-30 20:06:00,63.0,56.3,30.00,North,0,0.0,0.0,79,0.00,CLR,CLR,0.00,WeatherDisplay:10.37,2013-10-01 00:06:00,
2013-09-30 20:11:00,63.0,56.3,30.00,North,0,0.0,0.0,79,0.00,CLR,CLR,0.00,WeatherDisplay:10.37,2013-10-01 00:11:00,
2013-09-30 20:16:00,63.0,56.3,30.00,North,0,0.0,0.0,79,0.00,CLR,CLR,0.00,WeatherDisplay:10.37,2013-10-01 00:16:00,
2013-09-30 20:21:00,62.2,56.3,30.00,North,0,0.0,0.0,81,0.00,CLR,CLR,0.00,WeatherDisplay:10.37,2013-10-01 00:21:00,
2013-09-30 20:26:00,62.2,56.0,30.00,North,0,0.0,0.0,80,0.00,CLR,CLR,0.00,WeatherDisplay:10.37,2013-10-01 00:26:00,
2013-09-30 20:31:00,62.1,55.8,30.00,North,0,0.0,0.0,80,0.00,CLR,CLR,0.00,WeatherDisplay:10.37,2013-10-01 00:31:00,
2013-09-30 20:36:00,61.9,55.6,30.00,North,0,0.0,0.0,80,0.00,CLR,CLR,0.00,WeatherDisplay:10.37,2013-10-01 00:36:00,
2013-09-30 20:41:00,61.7,55.8,30.03,North,0,0.0,0.0,81,0.00,CLR,CLR,0.00,WeatherDisplay:10.37,2013-10-01 00:41:00,
2013-09-30 20:46:00,61.3,55.8,30.03,North,0,0.0,0.0,82,0.00,CLR,CLR,0.00,WeatherDisplay:10.37,2013-10-01 00:46:00,
2013-09-30 20:51:00,61.2,55.6,30.03,North,0,0.0,0.0,82,0.00,CLR,CLR,0.00,WeatherDisplay:10.37,2013-10-01 00:51:00,
2013-09-30 20:56:00,61.3,55.8,30.03,North,0,0.0,0.0,82,0.00,CLR,CLR,0.00,WeatherDisplay:10.37,2013-10-01 00:56:00,
2013-09-30 21:01:00,61.2,56.0,30.03,North,0,0.0,0.0,83,0.00,CLR,CLR,0.00,WeatherDisplay:10.37,2013-10-01 01:01:00,
2013-09-30 21:06:00,60.6,55.4,30.03,North,0,0.0,0.0,83,0.00,CLR,CLR,0.00,WeatherDisplay:10.37,2013-10-01 01:06:00,
2013-09-30 21:11:00,60.6,55.4,30.00,North,0,0.0,0.0,83,0.00,CLR,CLR,0.00,WeatherDisplay:10.37,2013-10-01 01:11:00,
2013-09-30 21:16:00,61.0,55.4,30.00,North,0,0.0,0.0,82,0.00,CLR,CLR,0.00,WeatherDisplay:10.37,2013-10-01 01:16:00,
2013-09-30 21:22:00,61.2,56.0,30.00,North,0,0.0,0.0,83,0.00,CLR,CLR,0.00,WeatherDisplay:10.37,2013-10-01 01:22:00,
2013-09-30 21:27:00,61.0,55.8,30.03,North,0,0.0,0.0,83,0.00,CLR,CLR,0.00,WeatherDisplay:10.37,2013-10-01 01:27:00,
2013-09-30 21:32:00,61.2,56.6,30.03,North,0,0.0,0.0,85,0.00,CLR,CLR,0.00,WeatherDisplay:10.37,2013-10-01 01:32:00,
2013-09-30 21:37:00,61.2,56.6,30.03,North,0,0.0,0.0,85,0.00,CLR,CLR,0.00,WeatherDisplay:10.37,2013-10-01 01:37:00,
2013-09-30 21:42:00,61.3,57.1,30.03,North,0,0.0,0.0,86,0.00,CLR,CLR,0.00,WeatherDisplay:10.37,2013-10-01 01:42:00,
2013-09-30 21:47:00,61.2,56.9,30.03,North,0,0.0,0.0,86,0.00,CLR,CLR,0.00,WeatherDisplay:10.37,2013-10-01 01:47:00,
2013-09-30 21:52:00,60.4,57.2,30.03,North,0,0.0,0.0,89,0.00,CLR,CLR,0.00,WeatherDisplay:10.37,2013-10-01 01:52:00,
2013-09-30 21:57:00,59.9,56.6,30.03,North,0,0.0,0.0,89,0.00,CLR,CLR,0.00,WeatherDisplay:10.37,2013-10-01 01:57:00,
2013-09-30 22:02:00,59.5,57.5,30.03,North,0,0.0,0.0,93,0.00,CLR,CLR,0.00,WeatherDisplay:10.37,2013-10-01 02:02:00,
2013-09-30 22:07:00,59.7,57.4,30.03,North,0,0.0,0.0,92,0.00,CLR,CLR,0.00,WeatherDisplay:10.37,2013-10-01 02:07:00,
2013-09-30 22:12:00,59.7,56.8,30.03,North,0,0.0,0.0,90,0.00,CLR,CLR,0.00,WeatherDisplay:10.37,2013-10-01 02:12:00,
2013-09-30 22:17:00,59.5,56.3,30.03,North,0,0.0,0.0,89,0.00,CLR,CLR,0.00,WeatherDisplay:10.37,2013-10-01 02:17:00,
2013-09-30 22:22:00,59.4,55.8,30.03,North,0,0.0,0.0,88,0.00,CLR,CLR,0.00,WeatherDisplay:10.37,2013-10-01 02:22:00,
2013-09-30 22:27:00,59.4,55.8,30.03,North,0,0.0,0.0,88,0.00,CLR,CLR,0.00,WeatherDisplay:10.37,2013-10-01 02:27:00,
2013-09-30 22:32:00,58.8,55.6,30.03,North,0,0.0,0.0,89,0.00,CLR,CLR,0.00,WeatherDisplay:10.37,2013-10-01 02:32:00,
2013-09-30 22:37:00,58.5,55.2,30.03,North,0,0.0,0.0,89,0.00,CLR,CLR,0.00,WeatherDisplay:10.37,2013-10-01 02:37:00,
2013-09-30 22:42:00,58.1,55.2,30.03,North,0,0.0,0.0,90,0.00,CLR,CLR,0.00,WeatherDisplay:10.37,2013-10-01 02:42:00,
2013-09-30 22:47:00,58.1,55.2,30.03,North,0,0.0,0.0,90,0.00,CLR,CLR,0.00,WeatherDisplay:10.37,2013-10-01 02:47:00,
2013-09-30 22:52:00,58.1,54.9,30.03,North,0,0.0,0.0,89,0.00,CLR,CLR,0.00,WeatherDisplay:10.37,2013-10-01 02:52:00,
2013-09-30 22:57:00,57.9,54.7,30.03,North,0,0.0,0.0,89,0.00,CLR,CLR,0.00,WeatherDisplay:10.37,2013-10-01 02:57:00,
2013-09-30 23:02:00,58.1,54.9,30.03,North,0,0.0,0.0,89,0.00,CLR,CLR,0.00,WeatherDisplay:10.37,2013-10-01 03:02:00,
2013-09-30 23:07:00,58.1,55.2,30.03,North,0,0.0,0.0,90,0.00,CLR,CLR,0.00,WeatherDisplay:10.37,2013-10-01 03:07:00,
2013-09-30 23:12:00,57.7,54.8,30.03,North,0,0.0,0.0,90,0.00,CLR,CLR,0.00,WeatherDisplay:10.37,2013-10-01 03:12:00,
2013-09-30 23:17:00,57.7,54.8,30.03,North,0,0.0,0.0,90,0.00,CLR,CLR,0.00,WeatherDisplay:10.37,2013-10-01 03:17:00,
2013-09-30 23:22:00,57.6,54.6,30.03,North,0,0.0,0.0,90,0.00,CLR,CLR,0.00,WeatherDisplay:10.37,2013-10-01 03:22:00,
2013-09-30 23:27:00,57.4,55.1,30.03,North,0,0.0,0.0,92,0.00,CLR,CLR,0.00,WeatherDisplay:10.37,2013-10-01 03:27:00,
2013-09-30 23:32:00,57.6,55.3,30.03,North,0,0.0,0.0,92,0.00,CLR,CLR,0.00,WeatherDisplay:10.37,2013-10-01 03:32:00,
2013-09-30 23:37:00,57.6,55.0,30.03,North,0,0.0,0.0,91,0.00,CLR,CLR,0.00,WeatherDisplay:10.37,2013-10-01 03:37:00,
2013-09-30 23:42:00,57.4,54.8,30.03,North,0,0.0,0.0,91,0.00,CLR,CLR,0.00,WeatherDisplay:10.37,2013-10-01 03:42:00,
2013-09-30 23:47:00,57.4,54.8,30.03,North,0,0.0,0.0,91,0.00,CLR,CLR,0.00,WeatherDisplay:10.37,2013-10-01 03:47:00,
2013-09-30 23:52:00,57.0,54.4,30.03,North,0,0.0,0.0,91,0.00,CLR,CLR,0.00,WeatherDisplay:10.37,2013-10-01 03:52:00,
2013-09-30 23:57:00,56.7,54.1,30.03,North,0,0.0,0.0,91,0.00,CLR,CLR,0.00,WeatherDisplay:10.37,2013-10-01 03:57:00,